[[{"header":{"parameterUnit":"m.s-1","parameterCategory":1,"la1":30.2992,"la2":30.254,"lo1":-89.0895,"lo2":-89.0443,"dy":0.0025,"dx":0.0025,"nx":19,"ny":19,"refTime":"2026-05-24T21:00:00:Z","depth":0,"parameterNumber":2,"parameterNumberName":"U-component_of_WINDS"},"data":[0,0,0,-3.3262,-3.3266,-3.3453,-3.3453,-3.3695,-3.3697,0,0,0,0,0,0,0,0,0,0,0,-3.3206,-3.3208,-3.3262,-3.3266,-3.3452,-3.3453,-3.3694,-3.3697,0,0,0,0,0,0,0,0,0,0,0,-3.3205,-3.3207,-3.3209,-3.3267,-3.3452,-3.3453,-3.3694,-3.3553,0,0,0,0,0,0,0,0,0,0,-3.3371,-3.3319,-3.3207,-3.3209,-3.3268,-3.3452,-3.3453,-3.3546,-3.3561,-3.3611,0,-3.3652,0,-3.3678,-3.3713,-3.3714,0,0,0,-3.3267,-3.3306,-3.3356,-3.321,-3.327,-3.3452,-3.3369,-3.3554,-3.3572,-3.3631,-3.3656,-3.3665,-3.3682,-3.3715,-3.3716,-3.3992,-3.3993,0,0,-3.3257,-3.324,-3.3344,-3.3367,-3.3336,-3.3363,-3.3375,-3.3565,-3.3592,-3.3657,-3.367,-3.3686,-3.3716,-3.3718,-3.3991,-3.3992,0,0,0,-3.3227,-3.3233,-3.3279,-3.3358,-3.3391,-3.3368,-3.3382,-3.3583,-3.3599,-3.3673,-3.3689,-3.3717,-3.372,-3.3989,-3.3991,-3.4035,0,0,0,-3.3221,-3.3215,-3.3274,-3.3266,-3.3387,-3.3489,-3.3395,-3.3586,-3.3608,-3.3688,-3.3718,-3.3723,-3.3988,-3.399,-3.4031,-3.4059,0,0,0,-3.3194,-3.3212,-3.3239,-3.3264,-3.3344,-3.3486,-3.3513,-3.3591,-3.3618,-3.3714,-3.3723,-3.3987,-3.399,-3.4027,-3.4053,-3.4127,0,0,0,-3.3162,-3.3276,-3.3239,-3.3373,-3.3342,-3.3511,-3.3512,-3.364,-3.3727,-3.3719,-3.3988,-3.3991,-3.4026,-3.405,-3.4123,-3.4186,-3.4211,0,0,-3.3297,-3.3292,-3.3372,-3.3344,-3.3515,-3.3484,-3.3663,-3.3761,-3.3786,-3.3922,-3.3929,-3.4032,-3.4053,-3.4126,-3.4353,-3.4372,0,0,0,-3.3409,-3.3467,-3.3516,-3.3597,-3.3673,-3.3741,-3.3812,-3.3849,-3.3964,-3.3852,-3.4079,-3.4092,-3.4136,-3.4167,-3.4184,-3.4223,-3.4004,-3.4004,-3.4004,-3.3576,-3.3601,-3.3736,-3.3784,-3.3863,-3.3936,-3.4003,-3.4065,-3.4068,-3.4122,-3.4162,-3.4296,-3.4332,-3.4345,-3.4385,-3.4197,-3.4198,-3.4198,-3.4198,-3.3776,-3.3862,-3.3863,-3.3994,-3.4021,-3.4132,-3.4207,-3.4206,-3.4314,-3.4268,-3.4308,-3.4255,-3.4365,-3.4402,-3.4201,-3.4201,-3.42,-3.42,-3.42,-3.3889,-3.3934,-3.3975,-3.4095,-3.4186,-3.4232,-3.4336,-3.4357,-3.4378,-3.4418,-3.4463,-3.4463,-3.4465,-3.4438,-3.4438,-3.4439,-3.4439,-3.4439,-3.444,-3.3989,-3.4034,-3.4118,-3.4208,-3.4263,-3.4339,-3.4413,-3.4469,-3.4537,-3.4544,-3.4545,-3.4544,-3.437,-3.4326,-3.4447,-3.4446,-3.4445,-3.4444,-3.4444,-3.4184,-3.4143,-3.4272,-3.4328,-3.4435,-3.4525,-3.455,-3.4662,-3.4712,-3.4763,-3.4754,-3.4621,-3.4619,-3.4606,-3.457,-3.4747,-3.4747,-3.4747,-3.4747,-3.4279,-3.4279,-3.4416,-3.4503,-3.4591,-3.4627,-3.4775,-3.4835,-3.489,-3.4923,-3.49,-3.4854,-3.484,-3.4846,-3.4828,-3.4795,-3.5025,-3.5025,-3.5025,-3.44,-3.441,-3.453,-3.4581,-3.4667,-3.4741,-3.4882,-3.4984,-3.5038,-3.5037,-3.4949,-3.4937,-3.4863,-3.4838,-3.4834,-3.4806,-3.4745,0,0]},{"header":{"parameterUnit":"m.s-1","parameterCategory":1,"la1":30.2992,"la2":30.254,"lo1":-89.0895,"lo2":-89.0443,"dy":0.0025,"dx":0.0025,"nx":19,"ny":19,"refTime":"2026-05-24T21:00:00:Z","depth":0,"parameterNumber":3,"parameterNumberName":"V-component_of_WINDS"},"data":[0,0,0,3.8859,3.886,3.8918,3.8918,3.8998,3.8999,0,0,0,0,0,0,0,0,0,0,0,3.8848,3.8848,3.8859,3.886,3.8918,3.8918,3.8998,3.8999,0,0,0,0,0,0,0,0,0,0,0,3.8847,3.8848,3.8849,3.8861,3.8918,3.8918,3.8997,3.8951,0,0,0,0,0,0,0,0,0,0,3.8894,3.889,3.8848,3.8849,3.8861,3.8918,3.8918,3.8949,3.8954,3.8975,0,3.8997,0,3.8999,3.9005,3.9005,0,0,0,3.8856,3.8886,3.8896,3.8849,3.8862,3.8918,3.8891,3.8952,3.8958,3.8982,3.8998,3.9,3.9,3.9005,3.9006,3.9144,3.9144,0,0,3.8853,3.8861,3.8892,3.89,3.8894,3.8889,3.8892,3.8955,3.8972,3.8998,3.9002,3.9002,3.9006,3.9006,3.9143,3.9144,0,0,0,3.8847,3.8859,3.8867,3.8897,3.8907,3.8891,3.8895,3.8969,3.8972,3.9003,3.9003,3.9006,3.9007,3.9142,3.9143,3.9193,0,0,0,3.8845,3.8855,3.8866,3.8872,3.8906,3.8939,3.8908,3.8967,3.8974,3.9002,3.9006,3.9008,3.9141,3.9142,3.919,3.9215,0,0,0,3.8842,3.8855,3.8865,3.8872,3.8897,3.8938,3.8944,3.8969,3.8974,3.9005,3.9008,3.914,3.9142,3.9187,3.921,3.9253,0,0,0,3.8841,3.8909,3.8866,3.8942,3.8897,3.897,3.8944,3.8997,3.9029,3.9007,3.9141,3.9143,3.9186,3.9207,3.925,3.929,3.9308,0,0,3.8931,3.892,3.8964,3.8927,3.901,3.896,3.9049,3.9071,3.9066,3.9117,3.9121,3.9191,3.921,3.9252,3.9407,3.9421,0,0,0,3.8995,3.9026,3.9046,3.9078,3.9097,3.9114,3.9122,3.9129,3.9173,3.9095,3.9218,3.9229,3.9254,3.9272,3.9285,3.9305,3.9152,3.9152,3.9152,3.9133,3.9124,3.9195,3.9193,3.9223,3.923,3.9253,3.9264,3.9246,3.9275,3.929,3.9385,3.9407,3.9416,3.9437,3.9311,3.9311,3.9312,3.9312,3.9263,3.9306,3.9279,3.9339,3.9328,3.9377,3.9386,3.9371,3.9414,3.9373,3.9394,3.935,3.9432,3.945,3.9315,3.9315,3.9314,3.9314,3.9314,3.9352,3.9371,3.938,3.9424,3.9458,3.9453,3.9495,3.9484,3.9473,3.9494,3.9508,3.9507,3.9503,3.9502,3.9502,3.9502,3.9503,3.9503,3.9503,3.9441,3.9449,3.9487,3.9512,3.953,3.9553,3.9559,3.9576,3.9592,3.9579,3.958,3.9557,3.9443,3.9414,3.9508,3.9507,3.9506,3.9506,3.9506,3.9575,3.9542,3.9601,3.962,3.9647,3.9681,3.9666,3.9701,3.9714,3.9735,3.9708,3.9626,3.9613,3.9603,3.9579,3.971,3.971,3.971,3.971,3.9649,3.9642,3.9698,3.9728,3.9756,3.9748,3.9812,3.9818,3.9818,3.9824,3.9804,3.9771,3.9761,3.9754,3.9741,3.9718,3.9882,3.9883,3.9883,3.973,3.9725,3.9783,3.9784,3.9804,3.9821,3.9881,3.9915,3.9908,3.9889,3.9829,3.9821,3.9768,3.9752,3.9731,3.9711,3.9669,0,0]}]]